Regional Weather Roundup
Issued by NWS

Home | Current Version | Previous Version | Graphics & Text | Print | Product List | Glossary On
Versions: 1 2 3 4 5 6 7 8 9 10 11 12 13 14 15 16 17 18 19 20 21 22 23 24 25 26 27 28 29 30 31 32 33 34 35 36 37 38 39 40 41 42 43 44 45 46 47 48 49 50
844
ASUS43 KLMK 231910
RWRKY
KENTUCKY REGIONAL WEATHER ROUNDUP
NATIONAL WEATHER SERVICE LOUISVILLE KY
300 PM EDT SUN JUL 23 2017

NOTE "FAIR" INDICATES FEW OR NO CLOUDS BELOW 12,000 FEET
WITH NO SIGNIFICANT WEATHER AND/OR OBSTRUCTIONS TO VISIBILITY.

KYZ001>023-026-027-061>063-070>075-232000-
WESTERN AND SOUTH CENTRAL KENTUCKY

CITY           SKY/WX    TMP DP  RH WIND       PRES   REMARKS
PADUCAH        MOSUNNY   91  70  49 NE3       29.86F HX  96
HENDERSON      MOSUNNY   86  74  67 N5        29.88F HX  94
OWENSBORO      SUNNY     87  71  58 NW3       29.87R HX  93
HOPKINSVILLE   MOSUNNY   92  75  57 SW5       29.85S HX 102
BOWLING GREEN  MOSUNNY   87  71  58 CALM      29.87F HX  93
GLASGOW        CLOUDY    88  69  54 CALM      29.88S HX  92
$$

KYZ024-025-028>034-038-045-046-053-232000-
NORTH CENTRAL KENTUCKY

CITY           SKY/WX    TMP DP  RH WIND       PRES   REMARKS
LOUISVILLE/SDF PTSUNNY   84  71  65 W7        29.85R
LOUISVILLE/LOU PTSUNNY   83  73  72 SW9       29.85R
FORT KNOX      CLOUDY    82  72  69 SW9       29.85R
$$

KYZ035>037-039>044-047>052-055>060-089>105-232000-
NORTHEAST KENTUCKY

CITY           SKY/WX    TMP DP  RH WIND       PRES   REMARKS
LEXINGTON      CLOUDY    81  70  69 S14G21    29.83F
COVINGTON      PTSUNNY   80  74  81 SW6       29.84R
FRANKFORT      CLOUDY    82  70  66 SW13      29.84R
$$

KYZ054-064>069-076>088-106>120-232000-
SOUTHEAST KENTUCKY

CITY           SKY/WX    TMP DP  RH WIND       PRES   REMARKS
JACKSON        CLOUDY    81  67  62 VRB3      29.90F
LONDON         MOSUNNY   86  63  45 VRB6      29.91F
SOMERSET       CLOUDY    84  63  48 S10       29.89F
MIDDLESBORO    MOSUNNY   90  70  52 S5        29.90S HX  95
MONTICELLO     MOCLDY    87  71  58 E8        29.90F HX  93
$$





USA.gov is the U.S. government's official web portal to all federal, state and local government web resources and services.